Location: Newark
(9.4667°S, 159.8167°E)
Time: 09:56:19
(UTC+00:00)

Explorer 7 - Visible Passes

Search period start: 14 November 2019 00:00
Search period end: 24 November 2019 00:00
Orbit: 485 x 680 km, 50.3° (Epoch: 13 November)

Date Brightness Start Highest point End Pass type
(mag) Time Alt. Az. Time Alt. Az. Time Alt. Az.
16 Nov 9.9 09:47:27 10° S 09:47:52 12° S 09:47:52 12° S visible
17 Nov 9.6 09:51:35 10° SSW 09:52:51 17° S 09:52:51 17° S visible
18 Nov 9.5 09:56:13 10° SW 09:57:55 22° SSW 09:57:55 22° SSW visible
19 Nov 9.2 08:22:51 10° SSE 08:25:24 14° SE 08:26:42 13° ESE visible
19 Nov 9.5 10:01:15 10° SW 10:03:03 22° WSW 10:03:03 22° WSW visible
20 Nov 8.5 08:26:24 10° S 08:30:26 26° SE 08:31:55 22° ESE visible
20 Nov 9.8 10:06:47 10° WSW 10:08:16 17° W 10:08:16 17° W visible
21 Nov 7.6 08:30:43 10° SSW 08:35:24 48° SE 08:37:13 32° ENE visible
21 Nov 10.1 10:13:13 10° W 10:13:34 11° W 10:13:34 11° W visible
22 Nov 7.2 08:35:28 10° SW 08:40:20 86° NW 08:42:35 32° NE visible
23 Nov 8.2 08:40:38 10° SW 08:45:13 43° NW 08:48:01 22° N visible
